GW6295 Weather Reports


time (UTC)temp
C
wind
direction
speed
KPH
gust
KPH
rain 1hr
cm
rain 24hr
cm
rain mn
cm
humidity
%
barometer
mb
20260504205015 24 174 8.0 12.9 0.00 0.00 0.08 64 1004.0
20260504204512 24 185 11.3 14.5 0.00 0.00 0.08 64 1004.0
20260504204013 23 174 9.7 17.7 0.00 0.00 0.08 65 1004.0
20260504203512 23 188 3.2 6.4 0.00 0.00 0.08 68 1004.0
20260504203014 22 198 4.8 9.7 0.00 0.00 0.08 69 1004.0
20260504202513 22 201 9.7 14.5 0.00 0.00 0.08 69 1004.0
20260504202016 21 215 8.0 14.5 0.00 0.00 0.23 71 1004.0
20260504201513 21 170 14.5 19.3 0.00 0.00 0.23 75 1004.0
20260504201013 20 171 9.7 17.7 0.00 0.00 0.23 78 1004.0
20260504200515 19 207 11.3 16.1 0.00 0.00 0.20 79 1005.0
20260504200015 19 202 9.7 12.9 0.00 0.00 0.20 78 1005.0
20260504195514 19 219 9.7 16.1 0.00 0.00 0.20 80 1004.0
20260504195015 18 210 14.5 25.7 0.00 0.00 0.23 81 1003.0
20260504194513 18 188 12.9 19.3 0.28 0.00 0.15 84 1005.0
20260504194015 19 176 6.4 11.3 0.00 0.00 0.15 84 1005.0
20260504193515 19 196 6.4 9.7 0.00 0.00 0.18 81 1005.0
20260504193012 19 223 6.4 9.7 0.30 0.00 0.15 82 1005.0
20260504192513 19 156 6.4 9.7 1.22 0.00 0.13 82 1005.0
20260504192013 20 236 3.2 6.4 0.00 0.00 0.10 85 1005.0
20260504191513 20 136 1.6 3.2 0.03 0.00 0.10 75 1005.0
20260504191013 21 48 1.6 6.4 0.71 0.00 0.05 71 1006.0
20260504190514 21 347 3.2 4.8 0.43 0.00 0.03 70 1006.0
20260504190013 21 350 6.4 11.3 0.00 0.00 0.00 66 1006.0
20260504185515 22 2 9.7 12.9 0.00 0.00 0.00 64 1006.0
20260504185013 22 2 6.4 9.7 0.00 0.00 0.00 62 1006.0
20260504184514 22 330 3.2 4.8 0.00 0.00 0.00 65 1005.0
20260504184018 23 288 3.2 4.8 0.00 0.00 0.00 62 1006.0
20260504183517 23 90 0.0 3.2 0.00 0.00 0.00 56 1005.0
20260504183014 23 83 0.0 3.2 0.00 0.00 0.00 55 1006.0
20260504182515 23 132 3.2 8.0 0.00 0.00 0.00 55 1006.0
20260504182015 23 216 3.2 6.4 0.00 0.00 0.00 55 1006.0
20260504181514 24 197 4.8 8.0 0.00 0.00 0.00 54 1006.0
20260504181013 24 185 6.4 9.7 0.00 0.00 0.00 54 1006.0
20260504180513 25 205 6.4 11.3 0.00 0.00 0.00 53 1006.0
20260504180013 25 192 12.9 19.3 0.00 0.00 0.00 52 1005.0
20260504175512 25 199 9.7 19.3 0.00 0.00 0.00 52 1006.0
20260504175015 25 217 9.7 17.7 0.00 0.00 0.00 53 1006.0
20260504174513 25 179 8.0 16.1 0.00 0.00 0.00 52 1006.0
20260504174016 24 134 6.4 11.3 0.00 0.00 0.00 56 1006.0
20260504173514 23 157 11.3 14.5 0.00 0.00 0.00 55 1006.0
20260504173013 23 144 6.4 11.3 0.00 0.00 0.00 54 1006.0
20260504172517 23 152 6.4 14.5 0.00 0.00 0.00 53 1006.0
20260504172014 22 138 4.8 9.7 0.00 0.00 0.00 56 1006.0
20260504171513 21 150 8.0 14.5 0.00 0.00 0.00 61 1006.0
20260504171012 20 143 3.2 8.0 0.00 0.00 0.00 64 1007.0
20260504170513 20 155 4.8 6.4 0.00 0.00 0.00 66 1007.0
20260504151017 20 51 1.6 3.2 0.00 0.00 0.00 64 1008.0
20260504150516 21 205 0.0 0.0 0.00 0.00 0.00 64 1008.0
20260504141017 20 150 4.8 9.7 0.00 0.00 0.00 64 1008.0
20260504140517 20 176 3.2 8.0 0.00 0.00 0.00 65 1008.0
20260504130517 18 156 3.2 8.0 0.00 0.00 0.00 71 1009.0
20260504110514 13 0 0.0 0.0 0.00 0.00 0.00 86 1009.0
20260504100514 15 190 3.2 3.2 0.00 0.00 0.00 76 1008.0
20260504081515 16 191 1.6 3.2 0.00 0.00 0.00 72 1008.0
20260504081015 16 173 1.6 3.2 0.00 0.00 0.00 72 1008.0
20260504080516 16 0 0.0 0.0 0.00 0.00 0.00 72 1008.0
20260504050514 18 205 11.3 16.1 0.00 0.00 0.00 61 1008.0
20260504050014 18 217 8.0 14.5 0.00 0.00 0.00 60 1008.0
20260504045512 18 214 9.7 14.5 0.00 0.00 0.00 60 1008.0
20260504045014 18 212 9.7 12.9 0.00 0.00 0.00 60 1009.0
20260504044512 18 211 11.3 14.5 0.00 0.00 0.00 60 1009.0
20260504044013 18 208 8.0 11.3 0.00 0.00 0.00 59 1009.0
20260504043512 18 222 9.7 12.9 0.00 0.00 0.00 59 1009.0
20260504043013 18 217 11.3 17.7 0.00 0.00 0.00 59 1009.0
20260504042514 18 219 8.0 12.9 0.00 0.00 0.00 58 1009.0
20260504042014 19 213 8.0 9.7 0.00 0.00 0.00 58 1009.0
20260504041513 19 222 11.3 17.7 0.00 0.00 0.00 58 1009.0
20260504041012 19 221 9.7 17.7 0.00 0.00 0.00 58 1009.0
20260504040513 19 228 9.7 11.3 0.00 0.00 0.00 57 1010.0
20260504040012 19 220 8.0 14.5 0.00 0.00 0.00 57 1010.0
20260504035512 19 218 9.7 14.5 0.00 0.00 0.00 56 1010.0
20260504035012 19 223 11.3 20.9 0.00 0.00 0.00 56 1010.0
20260504034515 19 216 12.9 17.7 0.00 0.00 0.00 56 1010.0
20260504034013 19 226 4.8 14.5 0.00 0.00 0.00 56 1010.0
20260504033513 19 226 11.3 14.5 0.00 0.00 0.00 55 1010.0
20260504033013 19 228 4.8 6.4 0.00 0.00 0.00 55 1010.0
20260504032512 19 216 8.0 12.9 0.00 0.00 0.00 55 1010.0
20260504032013 19 222 9.7 14.5 0.00 0.00 0.00 55 1010.0
20260504031514 19 215 11.3 14.5 0.00 0.00 0.00 55 1010.0
20260504031015 19 218 9.7 16.1 0.00 0.00 0.00 55 1010.0
20260504030513 19 216 9.7 14.5 0.00 0.00 0.00 54 1010.0
20260504030013 19 221 9.7 11.3 0.00 0.00 0.00 54 1010.0
20260504025513 20 216 9.7 14.5 0.00 0.00 0.00 54 1010.0
20260504025012 20 207 6.4 9.7 0.00 0.00 0.00 53 1010.0
20260504024513 20 211 8.0 11.3 0.00 0.00 0.00 53 1010.0
20260504024013 20 209 11.3 14.5 0.00 0.00 0.00 52 1010.0
20260504023513 20 210 8.0 14.5 0.00 0.00 0.00 53 1010.0
20260504023013 20 204 6.4 8.0 0.00 0.00 0.00 52 1010.0
20260504022512 20 205 6.4 12.9 0.00 0.00 0.00 52 1010.0
20260504022014 20 206 9.7 14.5 0.00 0.00 0.00 51 1010.0
20260504021513 20 199 6.4 8.0 0.00 0.00 0.00 51 1010.0
20260504021013 20 199 9.7 11.3 0.00 0.00 0.00 51 1010.0
20260504020513 20 194 8.0 11.3 0.00 0.00 0.00 51 1010.0
20260504020013 20 205 6.4 8.0 0.00 0.00 0.00 51 1010.0
20260504015512 20 202 6.4 11.3 0.00 0.00 0.00 50 1009.0
20260504015013 21 214 9.7 14.5 0.00 0.00 0.00 49 1009.0
20260504014512 21 214 6.4 9.7 0.00 0.00 0.00 49 1009.0
20260504014013 21 205 6.4 12.9 0.00 0.00 0.00 49 1009.0
20260504013512 21 203 8.0 12.9 0.00 0.00 0.00 48 1009.0
20260504013013 21 207 8.0 14.5 0.00 0.00 0.00 48 1009.0
20260504012513 21 210 6.4 9.7 0.00 0.00 0.00 48 1009.0
20260504012012 21 207 4.8 6.4 0.00 0.00 0.00 47 1009.0
20260504011512 21 205 6.4 14.5 0.00 0.00 0.00 47 1009.0
20260504011012 22 210 4.8 6.4 0.00 0.00 0.00 47 1009.0
20260504010513 22 203 8.0 9.7 0.00 0.00 0.00 46 1009.0
20260504010012 22 206 6.4 12.9 0.00 0.00 0.00 46 1009.0
20260504005514 22 207 4.8 6.4 0.00 0.00 0.00 45 1009.0
20260504005012 22 216 8.0 14.5 0.00 0.00 0.00 45 1009.0
20260504004512 22 209 6.4 8.0 0.00 0.00 0.00 44 1009.0
20260504004013 23 226 6.4 9.7 0.00 0.00 0.00 44 1009.0
20260504003512 23 222 9.7 14.5 0.00 0.00 0.00 43 1009.0
20260504003013 23 218 6.4 11.3 0.00 0.00 0.00 43 1009.0
20260504002512 23 220 9.7 12.9 0.00 0.00 0.00 43 1009.0
20260504002012 23 207 6.4 6.4 0.00 0.00 0.00 43 1009.0
20260504001512 23 214 6.4 9.7 0.00 0.00 0.00 42 1009.0
20260504001012 23 206 3.2 8.0 0.00 0.00 0.00 42 1009.0
20260504000513 23 222 6.4 12.9 0.00 0.00 0.00 42 1009.0
20260504000012 23 224 9.7 14.5 0.00 0.00 0.00 41 1009.0
20260503235512 23 213 4.8 11.3 0.00 0.00 0.00 42 1009.0
20260503235012 23 220 11.3 16.1 0.00 0.00 0.00 41 1009.0
20260503234515 23 233 4.8 9.7 0.00 0.00 0.00 40 1009.0
20260503234013 23 231 4.8 12.9 0.00 0.00 0.00 41 1010.0
20260503233512 24 207 9.7 14.5 0.00 0.00 0.00 40 1009.0
20260503233012 24 216 8.0 12.9 0.00 0.00 0.00 39 1010.0
20260503232512 24 233 3.2 9.7 0.00 0.00 0.00 39 1009.0
20260503232013 24 226 4.8 8.0 0.00 0.00 0.00 38 1010.0
20260503231512 25 221 8.0 17.7 0.00 0.00 0.00 38 1010.0
20260503231013 25 229 1.6 4.8 0.00 0.00 0.00 38 1010.0
20260503230513 25 210 1.6 4.8 0.00 0.00 0.00 37 1010.0
20260503230014 25 229 6.4 9.7 0.00 0.00 0.00 37 1010.0
20260503225512 25 131 3.2 6.4 0.00 0.00 0.00 39 1010.0
20260503225014 25 218 6.4 16.1 0.00 0.00 0.00 37 1010.0
20260503224512 25 240 6.4 12.9 0.00 0.00 0.00 36 1010.0
20260503224012 25 232 8.0 16.1 0.00 0.00 0.00 36 1010.0
20260503223513 25 216 6.4 12.9 0.00 0.00 0.00 36 1010.0
20260503223013 25 251 1.6 6.4 0.00 0.00 0.00 37 1010.0
20260503222512 25 215 11.3 17.7 0.00 0.00 0.00 35 1010.0
20260503222012 25 215 6.4 11.3 0.00 0.00 0.00 35 1010.0
20260503221513 25 222 4.8 9.7 0.00 0.00 0.00 36 1010.0
20260503221013 25 232 11.3 17.7 0.00 0.00 0.00 35 1010.0
20260503220512 25 224 12.9 25.7 0.00 0.00 0.00 35 1010.0
20260503220013 25 207 9.7 16.1 0.00 0.00 0.00 35 1010.0
20260503215512 25 219 6.4 17.7 0.00 0.00 0.00 35 1010.0
20260503215012 24 216 8.0 12.9 0.00 0.00 0.00 35 1010.0
20260503214512 24 224 9.7 16.1 0.00 0.00 0.00 35 1010.0
20260503214012 24 207 9.7 14.5 0.00 0.00 0.00 35 1010.0
20260503213512 24 216 9.7 19.3 0.00 0.00 0.00 35 1010.0
20260503213013 24 230 9.7 14.5 0.00 0.00 0.00 36 1010.0
20260503212512 24 228 14.5 29.0 0.00 0.00 0.00 35 1010.0
20260503212013 24 227 14.5 25.7 0.00 0.00 0.00 35 1010.0
20260503211512 24 213 4.8 11.3 0.00 0.00 0.00 37 1010.0
20260503211013 24 232 8.0 14.5 0.00 0.00 0.00 36 1010.0
20260503210512 24 220 9.7 17.7 0.00 0.00 0.00 36 1011.0
20260503210012 24 213 16.1 20.9 0.00 0.00 0.00 35 1011.0
20260503205512 24 215 9.7 14.5 0.00 0.00 0.00 36 1011.0